Miscellaneous Local Product
Issued by NWS Hastings, NE

Home | Current Version | Previous Version | Graphics & Text | Print | Product List | Glossary On
Versions: 1 2 3 4 5 6 7 8 9 10 11 12 13 14 15 16 17 18 19 20 21 22 23 24 25 26 27 28 29 30 31 32 33 34 35 36 37 38 39 40 41 42 43 44 45 46 47 48 49 50
000
AXUS43 KGID 162002
MISGRI

GID CWA HOURLY WEATHER ROUNDUP
NATIONAL WEATHER SERVICE HASTINGS NE
300 PM CDT MON OCT 16 2017

NOTE: "FAIR" INDICATES FEW OR NO CLOUDS BELOW 12,000 FEET WITH NO
SIGNIFICANT WEATHER AND/OR OBSTRUCTIONS TO VISIBILITY.

...SOUTH CENTRAL NEBRASKA...

CITY           SKY/WX    TMP DP  RH WIND       PRES   REMARKS
GRAND ISLAND   SUNNY     73  36  25 SW18G26   30.14F
HASTINGS       SUNNY     73  33  23 SW14G22   30.16F
KEARNEY        SUNNY     75  35  23 S25G31    30.13F
ORD            SUNNY     75  28  17 SW21G28   30.08
YORK           SUNNY     73  36  25 S17G28    30.16F
AURORA         SUNNY     73  34  24 SW18G28   30.15F
LEXINGTON      SUNNY     77  32  19 S22G30    30.11F
HEBRON         SUNNY     74  35  24 SW16G24   30.20F

...NEBRASKA PANHANDLE...

CITY           SKY/WX    TMP DP  RH WIND       PRES   REMARKS
CHADRON        SUNNY     70  22  16 NW13      30.09F
ALLIANCE       SUNNY     73  19  13 MISG      30.11F
SCOTTSBLUFF    SUNNY     77  17  10 NW14      30.13F
SIDNEY         CLOUDY    78  12   8 NW18G31   30.16F

...WESTERN AND NORTH CENTRAL NEBRASKA...

CITY           SKY/WX    TMP DP  RH WIND       PRES   REMARKS
VALENTINE      SUNNY     79  24  13 W12G21    30.05F
AINSWORTH      SUNNY     76  31  19 W15       30.05F
ONEILL         SUNNY     75  37  25 SW15G24   30.06F
BROKEN BOW     CLOUDY    75  35  23 SW23      30.10F
IMPERIAL       SUNNY     81  20  10 SW8G17    30.11F
NORTH PLATTE   SUNNY     78  30  17 SW18G29   30.09F
MCCOOK         SUNNY     80  28  15 SW22      30.11F

...EASTERN NEBRASKA...

CITY           SKY/WX    TMP DP  RH WIND       PRES   REMARKS
NORFOLK        SUNNY     75  36  24 SW16G25   30.09F
SO SIOUX CITY  SUNNY     74  35  24 SW18G26   30.11F
TEKAMAH        SUNNY     73  35  25 S17G23    30.14F
COLUMBUS       SUNNY     75  36  24 S16G24    30.13F
ALBION         SUNNY     75  37  24 SW17G25   30.11F
OMAHA EPPLEY   MOSUNNY   73  34  23 S18G26    30.16F
OFFUTT AFB     SUNNY     73  35  25 S16G22    30.17F
MILLARD        SUNNY     73  39  29 S10G18    30.17F
LINCOLN        SUNNY     74  34  23 SW17G26   30.18F
NEBRASKA CITY  SUNNY     72  38  30 SW18G25   30.21F
BEATRICE       SUNNY     72  40  30 S17       30.20F
FALLS CITY     SUNNY     71  39  31 SW16G24   30.23F

...NORTHERN KANSAS...

CITY           SKY/WX    TMP DP  RH WIND       PRES   REMARKS
GOODLAND       CLOUDY    73  31  21 S16       30.15F
HILL CITY      SUNNY     77  32  19 SW18      30.18F
NORTON         CLEAR     75  21  13 S18G25    30.14F
PHILLIPSBURG   SUNNY     79  32  18 S14G23    30.17F
SMITH CENTER   MOSUNNY   75  36  23 S15G23    30.19F
HAYS           SUNNY     74  32  21 SW26G33   30.21F
RUSSELL        SUNNY     74  33  22 S25G33    30.21F
CONCORDIA      SUNNY     73  36  25 S18G25    30.22F
SALINA         SUNNY     74  40  29 S16G23    30.25F
TOPEKA         SUNNY     71  38  29 S10       30.27F



USA.gov is the U.S. government's official web portal to all federal, state and local government web resources and services.